User: anonymous   Login
Location: Unspecified
(0.0000°N, 0.0000°E)
Time: 02:23:29
(UTC+00:00)
Language:

DSP F18 - Orbit

View from above orbital plane
View from above orbital plane
View from above satellite
View from above satellite

Ground track
Ground track

The orbit data is extracted from the following two-line orbital elements,

1 24737U 97008A   23079.95188487  .00000009  00000-0  00000-0 0  9997
2 24737  13.9978  12.1522 0008262 311.4612 239.0937  0.99028045  7086
Epoch (UTC): 20 March 2023 22:50:42
Eccentricity: 0.0008262
inclination: 13.9978°
perigee height: 36103 km
apogee height: 36173 km
right ascension of ascending node: 12.1522°
argument of perigee: 311.4612°
revolutions per day: 0.99028045
mean anomaly at epoch: 239.0937°
orbit number at epoch: 708

The dashed part of the orbit path shows where the satellite is in the earth's shadow,  

DLR